Weather History for Hastings, NE

Change the Weather History Date:

Wednesday, February 6, 2013

  Actual Average Record
Temperature  
Mean Temperature 44 °F 28 °F  
Max Temperature 54 °F 38 °F 63 °F (1944)
Min Temperature 33 °F 18 °F -14 °F (2014)
Degree Days  
Heating Degree Days 21 37  
Month to date heating degree days 176 225  
Since 1 July heating degree days 3826 3874  
Cooling Degree Days 0 0  
Month to date cooling degree days 0 0  
Year to date cooling degree days 0 0  
Moisture  
Dew Point 34 °F    
Average Humidity 79    
Maximum Humidity 100    
Minimum Humidity 58    
Precipitation  
Precipitation 0.00 in 0.01 in 0.60 in (1969)
Month to date precipitation 0.00 0.10  
Year to date precipitation 0.32 0.51  
Snow  
Snow 0.00 in 0.20 in 4.40 in (2005)
Month to date snowfall 0.0 1.5  
Since 1 July snowfall 13.3 17.4  
Snow Depth 0.00 in    
Sea Level Pressure  
Sea Level Pressure 29.89 in    
Wind  
Wind Speed 8 mph (SSE)    
Max Wind Speed 20 mph    
Max Gust Speed 26 mph    
Visibility 7 miles    
Events Fog    
T = Trace of Precipitation, MM = Missing Value Source: NWS Daily Summary

Daily Weather History Graph

Daily Weather History Graph

Search for Another Location

Airport:

Trip Planner

Search our weather history database for the weather conditions in past years. The results will help you decide how hot, cold, wet, or windy it might be!

Date:

Astronomy

Feb. 06, 2013 Rise Set
Actual Time 7:37 AM CST 5:58 PM CST
Civil Twilight 7:09 AM CST 6:26 PM CST
Nautical Twilight 6:37 AM CST 6:59 PM CST
Astronomical Twilight 6:05 AM CST 7:31 PM CST
Moon 4:23 AM CST (2/6) 2:17 PM CST (2/6)
Length of Visible Light 11h 17m
Length of Day
10h 20m
Waning Crescent, 17% of the Moon is Illuminated
Feb 6
Waning Crescent
Feb 10
New
Feb 17
First Quarter
Feb 25
Full
Mar 4
Last Quarter

Hourly Weather History & Observations

Time (CST) Temp. Windchill Dew Point Humidity Pressure Visibility Wind Dir Wind Speed Gust Speed Precip Events Conditions
12:53 AM 39.2 °F 32.5 °F 28.4 °F 65% 29.96 in 10.0 mi SSE 10.4 mph - N/A   Mostly Cloudy
1:53 AM 36.0 °F 30.3 °F 28.0 °F 73% 29.99 in 10.0 mi South 6.9 mph - N/A   Mostly Cloudy
2:53 AM 36.0 °F 30.3 °F 28.0 °F 73% 29.98 in 10.0 mi SSE 6.9 mph - N/A   Clear
3:53 AM 35.1 °F 28.6 °F 27.0 °F 72% 29.97 in 10.0 mi South 8.1 mph - N/A   Clear
4:53 AM 35.1 °F 27.9 °F 27.0 °F 72% 29.96 in 10.0 mi South 9.2 mph - N/A   Clear
5:53 AM 36.0 °F 28.0 °F 27.0 °F 70% 29.95 in 10.0 mi South 11.5 mph - N/A   Clear
6:53 AM 36.0 °F 28.5 °F 27.0 °F 70% 29.94 in 10.0 mi South 10.4 mph - N/A   Partly Cloudy
7:53 AM 35.1 °F 26.9 °F 28.0 °F 76% 29.95 in 10.0 mi South 11.5 mph - N/A   Clear
8:53 AM 35.1 °F 27.9 °F 28.0 °F 76% 29.94 in 10.0 mi South 9.2 mph - N/A   Clear
9:53 AM 36.0 °F 29.0 °F 28.9 °F 76% 29.94 in 10.0 mi South 9.2 mph - N/A   Clear
10:53 AM 44.1 °F 38.6 °F 30.9 °F 60% 29.92 in 10.0 mi South 10.4 mph - N/A   Clear
11:46 AM 46.4 °F 40.4 °F 33.8 °F 62% 29.88 in 10.0 mi South 13.8 mph 21.9 mph N/A   Mostly Cloudy
11:53 AM 46.0 °F 40.6 °F 34.0 °F 63% 29.90 in 10.0 mi South 11.5 mph 21.9 mph N/A   Mostly Cloudy
12:08 PM 46.4 °F 41.5 °F 35.6 °F 66% 29.87 in 10.0 mi South 10.4 mph 21.9 mph N/A   Overcast
12:53 PM 46.0 °F 38.8 °F 39.9 °F 79% 29.86 in 10.0 mi SSW 18.4 mph 26.5 mph N/A   Overcast
1:26 PM 48.2 °F - 39.2 °F 71% 29.82 in 10.0 mi South 13.8 mph 23.0 mph N/A   Scattered Clouds
1:37 PM 48.2 °F - 39.2 °F 71% 29.82 in 10.0 mi South 13.8 mph 23.0 mph N/A   Mostly Cloudy
1:44 PM 48.2 °F - 39.2 °F 71% 29.81 in 10.0 mi SSW 12.7 mph 23.0 mph N/A   Scattered Clouds
1:53 PM 48.9 °F - 39.0 °F 69% 29.83 in 10.0 mi South 10.4 mph 23.0 mph N/A   Scattered Clouds
2:53 PM 52.0 °F - 39.9 °F 63% 29.80 in 10.0 mi South 10.4 mph 18.4 mph N/A   Clear
3:53 PM 54.0 °F - 41.0 °F 62% 29.80 in 10.0 mi South 10.4 mph - N/A   Clear
4:53 PM 52.0 °F - 42.1 °F 69% 29.81 in 10.0 mi SSE 5.8 mph - N/A   Clear
5:53 PM 48.9 °F - 41.0 °F 74% 29.82 in 10.0 mi SSE 4.6 mph - N/A   Clear
6:53 PM 39.9 °F 37.8 °F 36.0 °F 86% 29.85 in 8.0 mi NNE 3.5 mph - N/A   Clear
7:53 PM 39.0 °F - 37.0 °F 93% 29.86 in 6.0 mi Calm Calm - N/A   Clear
8:46 PM 35.6 °F 31.7 °F 35.6 °F 100% 29.84 in 2.5 mi NE 4.6 mph - N/A   Clear
8:53 PM 35.1 °F 31.0 °F 34.0 °F 96% 29.89 in 2.0 mi NE 4.6 mph - N/A   Clear
9:00 PM 33.8 °F 30.8 °F 33.8 °F 100% 29.84 in 1.2 mi NE 3.5 mph - N/A   Clear
9:09 PM 35.6 °F - 33.8 °F 93% 29.85 in 0.2 mi Calm Calm - N/A Fog Fog
9:27 PM 35.6 °F - 33.8 °F 93% 29.85 in 0.5 mi Calm Calm - N/A Fog Fog
9:53 PM 35.1 °F - 34.0 °F 96% 29.90 in 0.5 mi Calm Calm - N/A Fog Fog
10:53 PM 35.1 °F - 35.1 °F 100% 29.90 in 0.2 mi Calm Calm - N/A Fog Fog
11:53 PM 36.0 °F 32.1 °F 35.1 °F 97% 29.93 in 0.5 mi North 4.6 mph - N/A Fog Fog
11:59 PM 37.4 °F 34.9 °F 35.6 °F 93% 29.90 in 1.2 mi NNE 3.5 mph - N/A   Mostly Cloudy